Location: Mount Cross
(36.6390°N, 79.4878°W)
Time: 01:38:12
(UTC+00:00)

SR - Pass Details

Date: 07 April 2023
Orbit: 580 x 867 km, 66.7° (Epoch: 08 June)

Event Time Altitude Azimuth Distance (km) Brightness Sun altitude
Rises 03:46:58 0° 198° (SSW) 3,018 - -41.5°
Reaches altitude 10° 03:49:21 10° 196° (SSW) 2,063 - -41.7°
Maximum altitude 03:53:56 64° 115° (ESE) 694 - -42.2°
Drops below altitude 10° 03:58:14 10° 34° (NE) 1,944 - -42.6°
Sets 04:00:26 0° 31° (NNE) 2,828 - -42.8°
